Weather in Tutaul

Russia / Amur Oblast     55°01′23″N   127°27′33″E
temp.,
°C
wind,
m/s
gust,
m/s
humid.,
%
clouds,
%
prec.,
mm/h
press.,
hPa
HPBL,
m
12 april, mon
mon1200:00−21nw22965 0.0 103113
03:00−23nw22975 0.0 103120
06:00−24nnw229713 0.0 103032
09:00−12nw37740 0.0 1026437
12:00−8nnw4560100 0.0 10231515
15:00−7nnw3463100 0.1 10211366
18:00−8nnw3674100 0.1 1020986
21:00−18nnw229610 0.2 102312
13 april, tue
tue1300:00−20nnw22945 0.0 102226
03:00−21nnw22925 0.0 102137
06:00−20n25925 0.0 102061
09:00−9n49705 0.0 1016615
12:00−6nne5759100 0.0 10141846
15:00−5nne4658100 0.1 10122030
18:00−6nne377090 0.1 1011726
21:00−14n229617 0.1 101416
14 april, wed
wed1400:00−17n229313 0.0 101336
03:00−20n22965 0.0 101327
06:00−21nnw22945 0.0 101330
09:00−8nnw24700 0.0 1010360
12:00−4nnw2358100 0.0 10081460
15:00−3nw3457100 0.1 10071514
18:00−4wnw257286 0.1 1007216
21:00−14nw219328 0.1 10119
15 april, thu
thu1500:00−17nnw229570 0.0 101215
03:00−18nnw229599 0.0 101217
06:00−18nnw22965 0.0 101317
09:00−6wsw00734 0.0 1011280
12:00−2sw117252 0.0 1011786
15:000se1165100 0.0 10101154
18:00−3sse2487100 0.1 1012273
21:00−10e1195100 0.1 101510
16 april, fri
fri1600:00−11ne2195100 0.0 101513
03:00−10nne2395100 0.0 101443
06:00−9nne3895100 0.0 1012142
09:00−4ne3877100 0.0 1011295
12:00−1e4771100 0.0 10101121
15:00−1ene5884100 1.1 1007894
18:00−1ne3796100 0.6 1008581
21:00−6nne2299100 0.9 101021